{"data":{"norad_id":67382,"intl_designator":"2026-004V","name":"AETHER-11","alt_names":[],"object_type":"PAYLOAD","status":"ACTIVE","operator":null,"country":"CA","launch_date":"2026-01-11","launch_site_code":"AFWTR","launch_vehicle":null,"mission":null,"orbit_class":"UNKNOWN","rcs_meters":null,"size_class":null,"mass_kg":null,"dimensions":null,"purposes":[],"wikipedia_slug":null,"has_3d_model":false,"image_url":null,"decayed_at":null,"tle_current":{"epoch":"2026-09-20T11:59:20.746752Z","epoch_age_seconds":100247,"freshness":"FRESH","line1":"1 67382U 26004V   26263.49954568  .00000404  00000+0  52390-4 0  9997","line2":"2 67382  97.8107 260.4293 0000684 167.6344 192.4888 14.85909645 37444","mean_motion":14.85909645,"eccentricity":6.84e-5,"inclination_deg":97.8107,"raan_deg":260.4293,"arg_perigee_deg":167.6344,"mean_anomaly_deg":192.4888,"bstar":5.239e-5,"rev_number":3744,"period_min":96.910334006211,"perigee_km":610.25407010877,"apogee_km":611.21014740285,"semimajor_km":6988.8691087558,"source":"CELESTRAK","updated_at":"2026-09-21T09:00:16.596409Z"}}}